Time,TemperatureF,DewpointF,PressureIn,WindDirection,WindDirectionDegrees,WindSpeedMPH,WindSpeedGustMPH,Humidity,HourlyPrecipIn,Conditions,Clouds,dailyrainin,SoftwareType,DateUTC
2013-06-02 00:01:00,51.3,31.7,30.38,SSW,203,0.0,0.0,47,0.00,,,0.00,WeatherCatV1.12B45,2013-06-02 07:01:00,
2013-06-02 00:06:00,51.3,31.7,30.38,SSW,208,0.0,0.0,47,0.00,,,0.00,WeatherCatV1.12B45,2013-06-02 07:06:00,
2013-06-02 00:11:00,51.3,31.7,30.38,SSW,211,0.0,0.0,47,0.00,,,0.00,WeatherCatV1.12B45,2013-06-02 07:11:00,
2013-06-02 00:16:00,51.6,31.5,30.38,SSW,211,0.0,0.0,46,0.00,,,0.00,WeatherCatV1.12B45,2013-06-02 07:16:00,
2013-06-02 00:21:00,51.3,31.2,30.38,SSW,211,0.0,0.0,46,0.00,,,0.00,WeatherCatV1.12B45,2013-06-02 07:21:00,
2013-06-02 00:26:00,50.7,31.2,30.38,SSW,211,0.0,0.0,47,0.00,,,0.00,WeatherCatV1.12B45,2013-06-02 07:26:00,
2013-06-02 00:31:00,50.2,31.3,30.38,SSW,211,0.0,0.0,48,0.00,,,0.00,WeatherCatV1.12B45,2013-06-02 07:31:00,
2013-06-02 00:36:00,50.2,31.8,30.38,SSW,211,0.0,0.0,49,0.00,,,0.00,WeatherCatV1.12B45,2013-06-02 07:36:00,
2013-06-02 00:41:00,50.2,31.8,30.38,SSW,211,0.0,0.0,49,0.00,,,0.00,WeatherCatV1.12B45,2013-06-02 07:41:00,
2013-06-02 00:46:00,50.2,31.3,30.38,SSW,211,0.0,0.0,48,0.00,,,0.00,WeatherCatV1.12B45,2013-06-02 07:46:00,
2013-06-02 00:51:00,50.2,31.3,30.38,SSW,211,0.0,0.0,48,0.00,,,0.00,WeatherCatV1.12B45,2013-06-02 07:51:00,
2013-06-02 00:56:00,49.6,31.3,30.38,SSW,211,0.0,0.0,49,0.00,,,0.00,WeatherCatV1.12B45,2013-06-02 07:56:00,
2013-06-02 01:01:00,49.6,31.3,30.38,SSW,211,0.0,0.0,49,0.00,,,0.00,WeatherCatV1.12B45,2013-06-02 08:01:00,
2013-06-02 01:06:00,49.5,31.1,30.38,SSW,211,0.0,0.0,49,0.00,,,0.00,WeatherCatV1.12B45,2013-06-02 08:06:00,
2013-06-02 01:11:00,49.3,31.4,30.38,SSW,211,0.0,0.0,50,0.00,,,0.00,WeatherCatV1.12B45,2013-06-02 08:11:00,
2013-06-02 01:16:00,49.1,31.3,30.38,SSW,211,0.0,0.0,50,0.00,,,0.00,WeatherCatV1.12B45,2013-06-02 08:16:00,
2013-06-02 01:21:00,49.3,31.4,30.38,SSW,211,0.0,0.0,50,0.00,,,0.00,WeatherCatV1.12B45,2013-06-02 08:21:00,
2013-06-02 01:26:00,49.3,31.4,30.38,SSW,211,0.0,0.0,50,0.00,,,0.00,WeatherCatV1.12B45,2013-06-02 08:26:00,
2013-06-02 01:31:00,49.1,31.8,30.38,SSW,211,0.0,0.0,51,0.00,,,0.00,WeatherCatV1.12B45,2013-06-02 08:31:00,
2013-06-02 01:34:00,48.9,31.6,30.38,SSW,211,0.0,0.0,51,0.00,,,0.00,WeatherCatV1.12B45,2013-06-02 08:34:00,
2013-06-02 01:39:00,48.7,31.9,30.38,SSW,211,0.0,0.0,52,0.00,,,0.00,WeatherCatV1.12B45,2013-06-02 08:39:00,
2013-06-02 01:44:00,48.6,32.2,30.38,SSW,211,0.0,0.0,53,0.00,,,0.00,WeatherCatV1.12B45,2013-06-02 08:44:00,
2013-06-02 01:49:00,48.6,32.2,30.35,SSW,211,0.0,0.0,53,0.00,,,0.00,WeatherCatV1.12B45,2013-06-02 08:49:00,
2013-06-02 01:54:00,48.6,31.7,30.35,SSW,211,0.0,0.0,52,0.00,,,0.00,WeatherCatV1.12B45,2013-06-02 08:54:00,
2013-06-02 01:59:00,48.6,31.7,30.35,SSW,211,0.0,0.0,52,0.00,,,0.00,WeatherCatV1.12B45,2013-06-02 08:59:00,
2013-06-02 02:04:00,48.6,31.7,30.35,SSW,211,0.0,0.0,52,0.00,,,0.00,WeatherCatV1.12B45,2013-06-02 09:04:00,
2013-06-02 02:09:00,48.7,32.4,30.35,SSW,211,0.0,0.0,53,0.00,,,0.00,WeatherCatV1.12B45,2013-06-02 09:09:00,
2013-06-02 02:14:00,49.1,32.2,30.35,SSW,211,0.0,0.0,52,0.00,,,0.00,WeatherCatV1.12B45,2013-06-02 09:14:00,
2013-06-02 02:19:00,49.3,32.9,30.35,SSW,211,0.0,0.0,53,0.00,,,0.00,WeatherCatV1.12B45,2013-06-02 09:19:00,
2013-06-02 02:24:00,49.1,32.7,30.35,SSW,211,0.0,0.0,53,0.00,,,0.00,WeatherCatV1.12B45,2013-06-02 09:24:00,
2013-06-02 02:29:00,48.9,32.5,30.35,SSW,211,0.0,0.0,53,0.00,,,0.00,WeatherCatV1.12B45,2013-06-02 09:29:00,
2013-06-02 02:34:00,48.9,33.0,30.35,SSW,211,0.0,0.0,54,0.00,,,0.00,WeatherCatV1.12B45,2013-06-02 09:34:00,
2013-06-02 02:39:00,48.9,33.0,30.35,SSW,211,0.0,0.0,54,0.00,,,0.00,WeatherCatV1.12B45,2013-06-02 09:39:00,
2013-06-02 02:44:00,48.7,32.8,30.35,SSW,211,0.0,0.0,54,0.00,,,0.00,WeatherCatV1.12B45,2013-06-02 09:44:00,
2013-06-02 02:49:00,48.6,32.7,30.35,SSW,211,0.0,0.0,54,0.00,,,0.00,WeatherCatV1.12B45,2013-06-02 09:49:00,
2013-06-02 02:54:00,48.4,32.5,30.35,SSW,211,0.0,0.0,54,0.00,,,0.00,WeatherCatV1.12B45,2013-06-02 09:54:00,
2013-06-02 02:59:00,48.0,32.6,30.35,SSW,211,0.0,0.0,55,0.00,,,0.00,WeatherCatV1.12B45,2013-06-02 09:59:00,
2013-06-02 03:04:00,47.5,32.1,30.35,SSW,211,0.0,0.0,55,0.00,,,0.00,WeatherCatV1.12B45,2013-06-02 10:04:00,
2013-06-02 03:09:00,47.3,32.4,30.35,SSW,211,0.0,0.0,56,0.00,,,0.00,WeatherCatV1.12B45,2013-06-02 10:09:00,
2013-06-02 03:14:00,47.3,32.4,30.35,SSW,211,0.0,0.0,56,0.00,,,0.00,WeatherCatV1.12B45,2013-06-02 10:14:00,
2013-06-02 03:19:00,47.3,32.8,30.35,SSW,211,0.0,0.0,57,0.00,,,0.00,WeatherCatV1.12B45,2013-06-02 10:19:00,
2013-06-02 03:24:00,47.3,32.8,30.35,SSW,211,0.0,0.0,57,0.00,,,0.00,WeatherCatV1.12B45,2013-06-02 10:24:00,
2013-06-02 03:29:00,47.3,33.3,30.35,SSW,211,0.0,0.0,58,0.00,,,0.00,WeatherCatV1.12B45,2013-06-02 10:29:00,
2013-06-02 03:34:00,47.3,33.3,30.35,SSW,211,0.0,0.0,58,0.00,,,0.00,WeatherCatV1.12B45,2013-06-02 10:34:00,
2013-06-02 03:39:00,47.3,33.7,30.35,SSW,211,0.0,0.0,59,0.00,,,0.00,WeatherCatV1.12B45,2013-06-02 10:39:00,
2013-06-02 03:44:00,47.3,34.1,30.35,SSW,211,0.0,0.0,60,0.00,,,0.00,WeatherCatV1.12B45,2013-06-02 10:44:00,
2013-06-02 03:49:00,47.3,34.1,30.35,SSW,211,0.0,0.0,60,0.00,,,0.00,WeatherCatV1.12B45,2013-06-02 10:49:00,
2013-06-02 03:54:00,47.3,34.1,30.35,SSW,211,0.0,0.0,60,0.00,,,0.00,WeatherCatV1.12B45,2013-06-02 10:54:00,
2013-06-02 03:59:00,47.1,34.0,30.35,SSW,211,0.0,0.0,60,0.00,,,0.00,WeatherCatV1.12B45,2013-06-02 10:59:00,
2013-06-02 04:04:00,47.1,34.4,30.35,SSW,211,0.0,0.0,61,0.00,,,0.00,WeatherCatV1.12B45,2013-06-02 11:04:00,
2013-06-02 04:09:00,47.1,34.8,30.35,SSW,211,0.0,0.0,62,0.00,,,0.00,WeatherCatV1.12B45,2013-06-02 11:09:00,
2013-06-02 04:14:00,47.3,34.9,30.35,SSW,211,0.0,0.0,62,0.00,,,0.00,WeatherCatV1.12B45,2013-06-02 11:14:00,
2013-06-02 04:19:00,47.3,34.9,30.35,SSW,211,0.0,0.0,62,0.00,,,0.00,WeatherCatV1.12B45,2013-06-02 11:19:00,
2013-06-02 04:24:00,47.1,34.8,30.35,SSW,211,0.0,0.0,62,0.00,,,0.00,WeatherCatV1.12B45,2013-06-02 11:24:00,
2013-06-02 04:29:00,47.1,34.8,30.35,SSW,211,0.0,0.0,62,0.00,,,0.00,WeatherCatV1.12B45,2013-06-02 11:29:00,
2013-06-02 04:34:00,47.1,34.8,30.35,SSW,211,0.0,0.0,62,0.00,,,0.00,WeatherCatV1.12B45,2013-06-02 11:34:00,
2013-06-02 04:39:00,47.1,34.8,30.35,SSW,211,0.0,0.0,62,0.00,,,0.00,WeatherCatV1.12B45,2013-06-02 11:39:00,
2013-06-02 04:44:00,46.9,35.8,30.35,SSW,211,0.0,0.0,65,0.00,,,0.00,WeatherCatV1.12B45,2013-06-02 11:44:00,
2013-06-02 04:49:00,46.4,34.9,30.35,SSW,211,0.0,0.0,64,0.00,,,0.00,WeatherCatV1.12B45,2013-06-02 11:49:00,
2013-06-02 04:55:00,45.9,34.4,30.35,SSW,211,0.0,0.0,64,0.00,,,0.00,WeatherCatV1.12B45,2013-06-02 11:55:00,
2013-06-02 05:00:00,45.5,34.4,30.35,SSW,211,0.0,0.0,65,0.00,,,0.00,WeatherCatV1.12B45,2013-06-02 12:00:00,
2013-06-02 05:05:00,45.5,35.6,30.35,SSW,211,0.0,0.0,68,0.00,,,0.00,WeatherCatV1.12B45,2013-06-02 12:05:00,
2013-06-02 05:10:00,45.7,36.5,30.35,SSW,211,0.0,0.0,70,0.00,,,0.00,WeatherCatV1.12B45,2013-06-02 12:10:00,
2013-06-02 05:15:00,45.9,36.6,30.35,SSW,211,0.0,0.0,70,0.00,,,0.00,WeatherCatV1.12B45,2013-06-02 12:15:00,
2013-06-02 05:20:00,46.0,37.2,30.35,SSW,211,0.0,0.0,71,0.00,,,0.00,WeatherCatV1.12B45,2013-06-02 12:20:00,
2013-06-02 05:25:00,46.4,37.5,30.35,SSW,211,0.0,0.0,71,0.00,,,0.00,WeatherCatV1.12B45,2013-06-02 12:25:00,
2013-06-02 05:30:00,46.4,37.5,30.35,SSW,211,0.0,0.0,71,0.00,,,0.00,WeatherCatV1.12B45,2013-06-02 12:30:00,
2013-06-02 05:35:00,46.6,37.7,30.35,SSW,211,0.0,0.0,71,0.00,,,0.00,WeatherCatV1.12B45,2013-06-02 12:35:00,
2013-06-02 05:40:00,46.8,37.9,30.35,SSW,211,0.0,0.0,71,0.00,,,0.00,WeatherCatV1.12B45,2013-06-02 12:40:00,
2013-06-02 05:45:00,47.1,38.2,30.35,SSW,211,0.0,0.0,71,0.00,,,0.00,WeatherCatV1.12B45,2013-06-02 12:45:00,
2013-06-02 05:50:00,47.3,38.4,30.35,NW,304,0.0,0.0,71,0.00,,,0.00,WeatherCatV1.12B45,2013-06-02 12:50:00,
2013-06-02 05:55:00,47.5,38.2,30.35,NW,304,0.0,0.0,70,0.00,,,0.00,WeatherCatV1.12B45,2013-06-02 12:55:00,
2013-06-02 06:00:00,47.7,38.4,30.35,ENE,57,0.0,0.0,70,0.00,,,0.00,WeatherCatV1.12B45,2013-06-02 13:00:00,
2013-06-02 06:05:00,48.0,38.3,30.35,ENE,57,0.0,0.0,69,0.00,,,0.00,WeatherCatV1.12B45,2013-06-02 13:05:00,
2013-06-02 06:10:00,48.4,37.2,30.35,South,187,0.0,0.0,65,0.00,,,0.00,WeatherCatV1.12B45,2013-06-02 13:10:00,
2013-06-02 06:15:00,48.7,37.5,30.35,South,187,0.0,0.0,65,0.00,,,0.00,WeatherCatV1.12B45,2013-06-02 13:15:00,
2013-06-02 06:20:00,48.9,37.7,30.35,South,187,0.0,0.0,65,0.00,,,0.00,WeatherCatV1.12B45,2013-06-02 13:20:00,
2013-06-02 06:25:00,49.1,37.5,30.35,South,187,0.0,0.0,64,0.00,,,0.00,WeatherCatV1.12B45,2013-06-02 13:25:00,
2013-06-02 06:30:00,49.5,37.4,30.35,South,187,0.0,0.0,63,0.00,,,0.00,WeatherCatV1.12B45,2013-06-02 13:30:00,
2013-06-02 06:35:00,49.8,37.3,30.35,South,187,0.0,0.0,62,0.00,,,0.00,WeatherCatV1.12B45,2013-06-02 13:35:00,
2013-06-02 06:40:00,50.4,37.8,30.35,South,187,0.0,0.0,62,0.00,,,0.00,WeatherCatV1.12B45,2013-06-02 13:40:00,
2013-06-02 06:45:00,50.9,37.9,30.35,South,187,0.0,0.0,61,0.00,,,0.00,WeatherCatV1.12B45,2013-06-02 13:45:00,
2013-06-02 06:50:00,51.6,38.6,30.35,NW,322,0.0,0.0,61,0.00,,,0.00,WeatherCatV1.12B45,2013-06-02 13:50:00,
2013-06-02 06:55:00,52.0,37.2,30.35,NW,320,0.0,0.0,57,0.00,,,0.00,WeatherCatV1.12B45,2013-06-02 13:55:00,
2013-06-02 07:00:00,52.0,36.8,30.35,WNW,282,0.0,0.0,56,0.00,,,0.00,WeatherCatV1.12B45,2013-06-02 14:00:00,
2013-06-02 07:05:00,51.6,36.0,30.35,WNW,282,0.0,0.0,55,0.00,,,0.00,WeatherCatV1.12B45,2013-06-02 14:05:00,
2013-06-02 07:10:00,51.4,35.4,30.35,SE,134,0.0,0.0,54,0.00,,,0.00,WeatherCatV1.12B45,2013-06-02 14:10:00,
2013-06-02 07:15:00,51.1,35.5,30.35,NE,43,2.7,4.0,55,0.00,,,0.00,WeatherCatV1.12B45,2013-06-02 14:15:00,
2013-06-02 07:20:00,50.7,35.1,30.35,NE,43,0.0,0.0,55,0.00,,,0.00,WeatherCatV1.12B45,2013-06-02 14:20:00,
2013-06-02 07:25:00,50.0,35.4,30.35,NW,322,3.6,6.3,57,0.00,,,0.00,WeatherCatV1.12B45,2013-06-02 14:25:00,
2013-06-02 07:30:00,49.5,36.6,30.35,NNW,343,3.6,4.9,61,0.00,,,0.00,WeatherCatV1.12B45,2013-06-02 14:30:00,
2013-06-02 07:35:00,48.7,37.5,30.35,NW,325,2.2,3.6,65,0.00,,,0.00,WeatherCatV1.12B45,2013-06-02 14:35:00,
2013-06-02 07:40:00,48.7,38.7,30.35,West,265,4.0,4.0,68,0.00,,,0.00,WeatherCatV1.12B45,2013-06-02 14:40:00,
2013-06-02 07:45:00,48.7,39.4,30.35,WSW,254,0.0,0.0,70,0.00,,,0.00,WeatherCatV1.12B45,2013-06-02 14:45:00,
2013-06-02 07:50:00,48.7,40.8,30.35,NNW,333,0.0,2.7,74,0.00,,,0.00,WeatherCatV1.12B45,2013-06-02 14:50:00,
2013-06-02 07:55:00,48.9,41.3,30.35,West,266,0.0,0.0,75,0.00,,,0.00,WeatherCatV1.12B45,2013-06-02 14:55:00,
2013-06-02 08:00:00,48.9,41.7,30.35,West,266,0.0,0.0,76,0.00,,,0.00,WeatherCatV1.12B45,2013-06-02 15:00:00,
2013-06-02 08:05:00,49.1,41.9,30.35,West,269,0.0,0.0,76,0.00,,,0.00,WeatherCatV1.12B45,2013-06-02 15:05:00,
2013-06-02 08:10:00,49.3,42.4,30.35,West,263,0.0,0.0,77,0.00,,,0.00,WeatherCatV1.12B45,2013-06-02 15:10:00,
2013-06-02 08:15:00,49.5,42.9,30.35,East,83,3.6,3.6,78,0.00,,,0.04,WeatherCatV1.12B45,2013-06-02 15:15:00,
2013-06-02 08:20:00,49.8,44.5,30.35,NE,35,0.0,6.7,82,0.00,,,0.04,WeatherCatV1.12B45,2013-06-02 15:20:00,
2013-06-02 08:25:00,49.8,44.9,30.35,NE,54,2.7,2.7,83,0.00,,,0.04,WeatherCatV1.12B45,2013-06-02 15:25:00,
2013-06-02 08:30:00,50.0,45.4,30.35,SW,223,2.2,4.0,84,0.00,,,0.04,WeatherCatV1.12B45,2013-06-02 15:30:00,
2013-06-02 08:35:00,50.0,45.4,30.35,West,259,0.0,3.1,84,0.00,,,0.04,WeatherCatV1.12B45,2013-06-02 15:35:00,
2013-06-02 08:40:00,50.4,45.7,30.35,West,261,0.0,0.0,84,0.00,,,0.04,WeatherCatV1.12B45,2013-06-02 15:40:00,
2013-06-02 08:45:00,50.4,45.7,30.35,West,274,0.0,0.0,84,0.00,,,0.04,WeatherCatV1.12B45,2013-06-02 15:45:00,
2013-06-02 08:50:00,50.5,45.9,30.35,WNW,302,0.0,0.0,84,0.08,,,0.08,WeatherCatV1.12B45,2013-06-02 15:50:00,
2013-06-02 08:55:00,50.7,46.1,30.35,WNW,284,0.0,0.0,84,0.08,,,0.08,WeatherCatV1.12B45,2013-06-02 15:55:00,
2013-06-02 09:00:00,50.7,46.1,30.35,West,281,0.0,0.0,84,0.08,,,0.08,WeatherCatV1.12B45,2013-06-02 16:00:00,
2013-06-02 09:05:00,50.7,46.1,30.38,West,280,0.0,0.0,84,0.08,,,0.08,WeatherCatV1.12B45,2013-06-02 16:05:00,
2013-06-02 09:10:00,50.7,46.1,30.38,WNW,292,0.0,0.0,84,0.08,,,0.08,WeatherCatV1.12B45,2013-06-02 16:10:00,
2013-06-02 09:15:00,50.5,45.9,30.38,WNW,292,0.0,0.0,84,0.08,,,0.08,WeatherCatV1.12B45,2013-06-02 16:15:00,
2013-06-02 09:20:00,50.5,45.9,30.38,WNW,292,0.0,0.0,84,0.08,,,0.08,WeatherCatV1.12B45,2013-06-02 16:20:00,
2013-06-02 09:25:00,50.5,45.9,30.38,WNW,292,0.0,0.0,84,0.08,,,0.08,WeatherCatV1.12B45,2013-06-02 16:25:00,
2013-06-02 09:30:00,50.5,45.9,30.38,WNW,292,0.0,0.0,84,0.08,,,0.08,WeatherCatV1.12B45,2013-06-02 16:30:00,
2013-06-02 09:35:00,50.5,45.9,30.38,WNW,292,0.0,0.0,84,0.08,,,0.12,WeatherCatV1.12B45,2013-06-02 16:35:00,
2013-06-02 09:40:00,50.7,46.1,30.38,WNW,292,0.0,0.0,84,0.08,,,0.12,WeatherCatV1.12B45,2013-06-02 16:40:00,
2013-06-02 09:45:00,50.7,46.1,30.38,WNW,292,0.0,0.0,84,0.08,,,0.12,WeatherCatV1.12B45,2013-06-02 16:45:00,
2013-06-02 09:50:00,50.7,46.1,30.38,WNW,292,0.0,0.0,84,0.08,,,0.12,WeatherCatV1.12B45,2013-06-02 16:50:00,
2013-06-02 09:55:00,50.7,46.1,30.38,South,175,0.0,0.0,84,0.08,,,0.16,WeatherCatV1.12B45,2013-06-02 16:55:00,
2013-06-02 10:00:00,50.7,46.1,30.38,South,175,0.0,0.0,84,0.08,,,0.16,WeatherCatV1.12B45,2013-06-02 17:00:00,
2013-06-02 10:05:00,50.7,46.1,30.38,ESE,123,3.6,3.6,84,0.08,,,0.16,WeatherCatV1.12B45,2013-06-02 17:05:00,
2013-06-02 10:10:00,50.9,46.2,30.38,SE,128,0.0,2.7,84,0.16,,,0.20,WeatherCatV1.12B45,2013-06-02 17:10:00,
2013-06-02 10:15:00,50.9,46.6,30.38,South,175,0.0,2.7,85,0.16,,,0.20,WeatherCatV1.12B45,2013-06-02 17:15:00,
2013-06-02 10:20:00,50.9,46.6,30.35,SE,128,2.7,2.7,85,0.16,,,0.20,WeatherCatV1.12B45,2013-06-02 17:20:00,
2013-06-02 10:25:00,51.1,46.7,30.35,South,171,2.7,3.1,85,0.16,,,0.24,WeatherCatV1.12B45,2013-06-02 17:25:00,
2013-06-02 10:30:00,51.1,46.7,30.35,SE,136,2.7,5.8,85,0.16,,,0.24,WeatherCatV1.12B45,2013-06-02 17:30:00,
2013-06-02 10:35:00,51.1,46.7,30.35,South,177,0.0,4.9,85,0.20,,,0.28,WeatherCatV1.12B45,2013-06-02 17:35:00,
2013-06-02 10:40:00,51.1,46.7,30.35,SE,143,4.0,5.4,85,0.20,,,0.28,WeatherCatV1.12B45,2013-06-02 17:40:00,
2013-06-02 10:45:00,51.1,46.7,30.35,South,171,3.6,6.3,85,0.20,,,0.28,WeatherCatV1.12B45,2013-06-02 17:45:00,
2013-06-02 10:50:00,51.3,47.2,30.35,SSE,167,3.1,7.6,86,0.20,,,0.28,WeatherCatV1.12B45,2013-06-02 17:50:00,
2013-06-02 10:55:00,51.3,47.2,30.35,SSE,157,2.7,6.3,86,0.20,,,0.28,WeatherCatV1.12B45,2013-06-02 17:55:00,
2013-06-02 11:00:00,51.3,47.2,30.35,WNW,298,3.1,4.0,86,0.20,,,0.28,WeatherCatV1.12B45,2013-06-02 18:00:00,
2013-06-02 11:05:00,51.4,47.4,30.35,West,278,3.1,5.4,86,0.20,,,0.28,WeatherCatV1.12B45,2013-06-02 18:05:00,
2013-06-02 11:10:00,51.6,47.6,30.35,WNW,286,0.0,2.7,86,0.20,,,0.28,WeatherCatV1.12B45,2013-06-02 18:10:00,
2013-06-02 11:15:00,51.8,47.7,30.35,NW,317,2.7,3.1,86,0.20,,,0.28,WeatherCatV1.12B45,2013-06-02 18:15:00,
2013-06-02 11:20:00,52.2,48.1,30.35,NNW,338,0.0,0.0,86,0.20,,,0.28,WeatherCatV1.12B45,2013-06-02 18:20:00,
2013-06-02 11:25:00,52.5,48.5,30.35,WSW,237,0.0,0.0,86,0.20,,,0.28,WeatherCatV1.12B45,2013-06-02 18:25:00,
2013-06-02 11:30:00,53.1,48.7,30.35,WSW,237,0.0,0.0,85,0.20,,,0.28,WeatherCatV1.12B45,2013-06-02 18:30:00,
2013-06-02 11:35:00,53.6,49.2,30.35,WSW,245,0.0,0.0,85,0.20,,,0.28,WeatherCatV1.12B45,2013-06-02 18:35:00,
2013-06-02 11:40:00,54.5,50.1,30.35,SW,219,0.0,0.0,85,0.20,,,0.28,WeatherCatV1.12B45,2013-06-02 18:40:00,
2013-06-02 11:45:00,55.6,50.8,30.35,NW,326,0.0,0.0,84,0.20,,,0.28,WeatherCatV1.12B45,2013-06-02 18:45:00,
2013-06-02 11:50:00,56.3,51.2,30.35,NNW,339,0.0,0.0,83,0.20,,,0.28,WeatherCatV1.12B45,2013-06-02 18:50:00,
2013-06-02 11:55:00,56.3,49.9,30.35,NNW,339,0.0,0.0,79,0.20,,,0.28,WeatherCatV1.12B45,2013-06-02 18:55:00,
2013-06-02 12:00:00,56.5,47.6,30.35,NNW,331,0.0,0.0,72,0.20,,,0.28,WeatherCatV1.12B45,2013-06-02 19:00:00,
2013-06-02 12:05:00,56.3,47.0,30.35,NNW,331,0.0,0.0,71,0.20,,,0.28,WeatherCatV1.12B45,2013-06-02 19:05:00,
2013-06-02 12:10:00,56.1,46.1,30.35,NNW,344,0.0,0.0,69,0.20,,,0.28,WeatherCatV1.12B45,2013-06-02 19:10:00,
2013-06-02 12:15:00,56.3,45.1,30.35,NE,46,0.0,0.0,66,0.20,,,0.28,WeatherCatV1.12B45,2013-06-02 19:15:00,
2013-06-02 12:20:00,56.7,45.4,30.38,NE,46,0.0,0.0,66,0.20,,,0.28,WeatherCatV1.12B45,2013-06-02 19:20:00,
2013-06-02 12:25:00,56.8,44.0,30.38,NE,46,0.0,0.0,62,0.20,,,0.28,WeatherCatV1.12B45,2013-06-02 19:25:00,
2013-06-02 12:30:00,56.7,42.0,30.38,NE,46,0.0,0.0,58,0.20,,,0.28,WeatherCatV1.12B45,2013-06-02 19:30:00,
2013-06-02 12:35:00,57.2,42.6,30.35,NE,46,0.0,0.0,58,0.20,,,0.28,WeatherCatV1.12B45,2013-06-02 19:35:00,
2013-06-02 12:40:00,57.2,40.2,30.35,NE,46,0.0,0.0,53,0.00,,,0.28,WeatherCatV1.12B45,2013-06-02 19:40:00,
2013-06-02 12:45:00,57.4,42.3,30.35,ENE,62,2.7,3.1,57,0.00,,,0.28,WeatherCatV1.12B45,2013-06-02 19:45:00,
2013-06-02 12:50:00,57.0,41.9,30.35,ENE,62,2.7,3.6,57,0.00,,,0.28,WeatherCatV1.12B45,2013-06-02 19:50:00,
2013-06-02 12:55:00,57.7,41.7,30.35,ENE,59,0.0,4.0,55,0.00,,,0.28,WeatherCatV1.12B45,2013-06-02 19:55:00,
2013-06-02 13:00:00,57.9,41.4,30.35,ENE,57,2.2,3.1,54,0.00,,,0.28,WeatherCatV1.12B45,2013-06-02 20:00:00,
2013-06-02 13:05:00,58.1,41.1,30.35,NE,46,2.7,2.7,53,0.00,,,0.28,WeatherCatV1.12B45,2013-06-02 20:05:00,
2013-06-02 13:10:00,58.5,41.4,30.35,NE,42,0.0,2.7,53,0.00,,,0.28,WeatherCatV1.12B45,2013-06-02 20:10:00,
2013-06-02 13:15:00,58.8,41.7,30.35,SE,131,0.0,0.0,53,0.00,,,0.28,WeatherCatV1.12B45,2013-06-02 20:15:00,
2013-06-02 13:20:00,58.8,41.2,30.35,East,93,0.0,0.0,52,0.00,,,0.28,WeatherCatV1.12B45,2013-06-02 20:20:00,
2013-06-02 13:25:00,58.6,40.6,30.35,East,93,0.0,0.0,51,0.00,,,0.28,WeatherCatV1.12B45,2013-06-02 20:25:00,
2013-06-02 13:30:00,58.6,42.0,30.35,NW,310,2.2,4.0,54,0.00,,,0.28,WeatherCatV1.12B45,2013-06-02 20:30:00,
2013-06-02 13:35:00,59.2,42.5,30.35,NW,310,0.0,3.6,54,0.00,,,0.28,WeatherCatV1.12B45,2013-06-02 20:35:00,
2013-06-02 13:40:00,59.2,41.1,30.35,NW,310,0.0,0.0,51,0.00,,,0.28,WeatherCatV1.12B45,2013-06-02 20:40:00,
2013-06-02 13:45:00,59.4,41.2,30.35,NNW,333,0.0,0.0,51,0.00,,,0.28,WeatherCatV1.12B45,2013-06-02 20:45:00,
2013-06-02 13:50:00,59.7,41.6,30.35,NNW,334,0.0,0.0,51,0.00,,,0.28,WeatherCatV1.12B45,2013-06-02 20:50:00,
2013-06-02 13:55:00,58.8,37.5,30.35,NE,38,3.6,4.9,45,0.00,,,0.28,WeatherCatV1.12B45,2013-06-02 20:55:00,
2013-06-02 14:00:00,59.7,38.3,30.35,SSE,166,0.0,2.2,45,0.00,,,0.28,WeatherCatV1.12B45,2013-06-02 21:00:00,
2013-06-02 14:05:00,60.6,39.7,30.35,SSE,166,0.0,0.0,46,0.00,,,0.28,WeatherCatV1.12B45,2013-06-02 21:05:00,
2013-06-02 14:10:00,62.1,39.9,30.35,NE,55,3.1,3.6,44,0.00,,,0.28,WeatherCatV1.12B45,2013-06-02 21:10:00,
2013-06-02 14:15:00,62.8,36.8,30.35,NNE,21,2.7,2.7,38,0.00,,,0.28,WeatherCatV1.12B45,2013-06-02 21:15:00,
2013-06-02 14:20:00,61.7,35.8,30.32,NE,54,0.0,3.1,38,0.00,,,0.28,WeatherCatV1.12B45,2013-06-02 21:20:00,
2013-06-02 14:25:00,63.3,38.6,30.32,South,185,3.6,3.6,40,0.00,,,0.28,WeatherCatV1.12B45,2013-06-02 21:25:00,
2013-06-02 14:30:00,64.4,36.9,30.32,ENE,58,3.6,3.6,36,0.00,,,0.28,WeatherCatV1.12B45,2013-06-02 21:30:00,
2013-06-02 14:35:00,63.1,35.0,30.32,ENE,63,0.0,0.0,35,0.00,,,0.28,WeatherCatV1.12B45,2013-06-02 21:35:00,
2013-06-02 14:40:00,63.5,35.4,30.32,ENE,64,0.0,0.0,35,0.00,,,0.28,WeatherCatV1.12B45,2013-06-02 21:40:00,
2013-06-02 14:45:00,65.8,37.4,30.32,ESE,120,0.0,2.2,35,0.00,,,0.28,WeatherCatV1.12B45,2013-06-02 21:45:00,
2013-06-02 14:50:00,67.8,37.7,30.32,NW,326,0.0,2.7,33,0.00,,,0.28,WeatherCatV1.12B45,2013-06-02 21:50:00,
2013-06-02 14:56:00,68.7,38.4,30.32,South,183,2.7,3.1,33,0.00,,,0.28,WeatherCatV1.12B45,2013-06-02 21:56:00,
2013-06-02 15:01:00,70.5,39.2,30.32,WSW,257,0.0,5.4,32,0.00,,,0.28,WeatherCatV1.12B45,2013-06-02 22:01:00,
2013-06-02 15:06:00,70.7,39.4,30.32,NE,48,0.0,3.1,32,0.00,,,0.28,WeatherCatV1.12B45,2013-06-02 22:06:00,
2013-06-02 15:11:00,70.0,37.1,30.32,WSW,238,0.0,0.0,30,0.00,,,0.28,WeatherCatV1.12B45,2013-06-02 22:11:00,
2013-06-02 15:16:00,66.9,36.1,30.32,NE,38,0.0,0.0,32,0.00,,,0.28,WeatherCatV1.12B45,2013-06-02 22:16:00,
2013-06-02 15:21:00,65.7,36.5,30.32,NNW,336,5.4,5.4,34,0.00,,,0.28,WeatherCatV1.12B45,2013-06-02 22:21:00,
2013-06-02 15:26:00,65.8,35.9,30.32,NNW,341,3.6,5.4,33,0.00,,,0.28,WeatherCatV1.12B45,2013-06-02 22:26:00,
2013-06-02 15:31:00,67.6,36.7,30.32,North,357,4.9,4.9,32,0.00,,,0.28,WeatherCatV1.12B45,2013-06-02 22:31:00,
2013-06-02 15:36:00,70.7,36.0,30.32,WNW,300,0.0,5.4,28,0.00,,,0.28,WeatherCatV1.12B45,2013-06-02 22:36:00,
2013-06-02 15:41:00,73.2,35.3,30.32,SSE,165,2.2,4.9,25,0.00,,,0.28,WeatherCatV1.12B45,2013-06-02 22:41:00,
2013-06-02 15:46:00,74.1,33.9,30.32,West,267,2.2,4.5,23,0.00,,,0.28,WeatherCatV1.12B45,2013-06-02 22:46:00,
2013-06-02 15:51:00,72.9,32.9,30.32,ESE,116,0.0,5.4,23,0.00,,,0.28,WeatherCatV1.12B45,2013-06-02 22:51:00,
2013-06-02 15:56:00,72.7,32.7,30.32,NNW,337,2.2,4.9,23,0.00,,,0.28,WeatherCatV1.12B45,2013-06-02 22:56:00,
2013-06-02 16:01:00,72.9,31.8,30.32,WSW,246,2.2,3.6,22,0.00,,,0.28,WeatherCatV1.12B45,2013-06-02 23:01:00,
2013-06-02 16:06:00,70.0,30.5,30.32,West,275,4.0,4.0,23,0.00,,,0.28,WeatherCatV1.12B45,2013-06-02 23:06:00,
2013-06-02 16:11:00,66.9,28.9,30.32,SSW,211,4.0,4.5,24,0.00,,,0.28,WeatherCatV1.12B45,2013-06-02 23:11:00,
2013-06-02 16:16:00,64.2,29.5,30.32,West,265,0.0,0.0,27,0.00,,,0.28,WeatherCatV1.12B45,2013-06-02 23:16:00,
2013-06-02 16:21:00,62.6,33.8,30.32,East,87,2.2,3.6,34,0.00,,,0.28,WeatherCatV1.12B45,2013-06-02 23:21:00,
2013-06-02 16:26:00,61.3,34.8,30.32,East,87,0.0,0.0,37,0.00,,,0.28,WeatherCatV1.12B45,2013-06-02 23:26:00,
2013-06-02 16:31:00,62.1,35.5,30.32,WNW,298,0.0,0.0,37,0.00,,,0.28,WeatherCatV1.12B45,2013-06-02 23:31:00,
2013-06-02 16:36:00,62.4,35.1,30.32,NE,41,0.0,0.0,36,0.00,,,0.28,WeatherCatV1.12B45,2013-06-02 23:36:00,
2013-06-02 16:41:00,62.6,34.6,30.32,NE,39,0.0,0.0,35,0.00,,,0.28,WeatherCatV1.12B45,2013-06-02 23:41:00,
2013-06-02 16:46:00,63.1,35.7,30.32,NE,39,0.0,0.0,36,0.00,,,0.28,WeatherCatV1.12B45,2013-06-02 23:46:00,
2013-06-02 16:51:00,63.3,35.9,30.35,NE,39,0.0,0.0,36,0.00,,,0.28,WeatherCatV1.12B45,2013-06-02 23:51:00,
2013-06-02 16:56:00,62.4,34.4,30.35,NE,39,0.0,0.0,35,0.00,,,0.28,WeatherCatV1.12B45,2013-06-02 23:56:00,
2013-06-02 17:01:00,61.7,33.8,30.35,WNW,288,3.1,3.6,35,0.00,,,0.28,WeatherCatV1.12B45,2013-06-03 00:01:00,
2013-06-02 17:06:00,61.2,34.0,30.32,SW,232,0.0,3.1,36,0.00,,,0.28,WeatherCatV1.12B45,2013-06-03 00:06:00,
2013-06-02 17:11:00,60.6,33.5,30.32,SW,232,0.0,0.0,36,0.00,,,0.28,WeatherCatV1.12B45,2013-06-03 00:11:00,
2013-06-02 17:16:00,60.3,33.9,30.32,West,271,2.7,3.1,37,0.00,,,0.28,WeatherCatV1.12B45,2013-06-03 00:16:00,
2013-06-02 17:21:00,59.7,33.4,30.35,North,2,5.4,11.4,37,0.00,,,0.28,WeatherCatV1.12B45,2013-06-03 00:21:00,
2013-06-02 17:26:00,58.6,33.8,30.35,WSW,248,3.6,4.0,39,0.00,,,0.28,WeatherCatV1.12B45,2013-06-03 00:26:00,
2013-06-02 17:31:00,57.4,35.6,30.35,NW,323,5.4,8.7,44,0.00,,,0.28,WeatherCatV1.12B45,2013-06-03 00:31:00,
2013-06-02 17:36:00,55.9,38.6,30.32,NNW,343,3.1,5.4,52,0.00,,,0.28,WeatherCatV1.12B45,2013-06-03 00:36:00,
2013-06-02 17:41:00,54.3,38.0,30.32,SW,235,0.0,2.7,54,0.00,,,0.28,WeatherCatV1.12B45,2013-06-03 00:41:00,
2013-06-02 17:46:00,54.1,40.1,30.32,SSW,197,0.0,2.7,59,0.00,,,0.28,WeatherCatV1.12B45,2013-06-03 00:46:00,
2013-06-02 17:51:00,54.5,43.4,30.32,SSW,209,0.0,0.0,66,0.00,,,0.28,WeatherCatV1.12B45,2013-06-03 00:51:00,
2013-06-02 17:56:00,54.5,44.2,30.32,West,277,0.0,2.2,68,0.00,,,0.28,WeatherCatV1.12B45,2013-06-03 00:56:00,
2013-06-02 18:01:00,54.3,44.0,30.32,West,277,0.0,0.0,68,0.00,,,0.28,WeatherCatV1.12B45,2013-06-03 01:01:00,
2013-06-02 18:06:00,54.5,44.5,30.32,West,277,0.0,0.0,69,0.00,,,0.28,WeatherCatV1.12B45,2013-06-03 01:06:00,
2013-06-02 18:11:00,54.5,44.5,30.32,West,277,0.0,0.0,69,0.00,,,0.28,WeatherCatV1.12B45,2013-06-03 01:11:00,
2013-06-02 18:16:00,54.5,44.9,30.32,West,277,0.0,0.0,70,0.00,,,0.28,WeatherCatV1.12B45,2013-06-03 01:16:00,
2013-06-02 18:21:00,54.3,44.4,30.32,West,277,0.0,0.0,69,0.00,,,0.28,WeatherCatV1.12B45,2013-06-03 01:21:00,
2013-06-02 18:26:00,54.1,44.6,30.32,West,277,0.0,0.0,70,0.00,,,0.28,WeatherCatV1.12B45,2013-06-03 01:26:00,
2013-06-02 18:31:00,54.1,44.6,30.32,West,277,0.0,0.0,70,0.00,,,0.28,WeatherCatV1.12B45,2013-06-03 01:31:00,
2013-06-02 18:36:00,54.1,44.6,30.32,West,277,0.0,0.0,70,0.00,,,0.28,WeatherCatV1.12B45,2013-06-03 01:36:00,
2013-06-02 18:41:00,54.3,45.1,30.32,West,277,0.0,0.0,71,0.00,,,0.28,WeatherCatV1.12B45,2013-06-03 01:41:00,
2013-06-02 18:46:00,54.3,44.7,30.32,West,277,0.0,0.0,70,0.00,,,0.28,WeatherCatV1.12B45,2013-06-03 01:46:00,
2013-06-02 18:51:00,54.1,43.8,30.32,West,277,0.0,0.0,68,0.00,,,0.28,WeatherCatV1.12B45,2013-06-03 01:51:00,
2013-06-02 18:56:00,54.1,43.8,30.32,West,277,0.0,0.0,68,0.00,,,0.28,WeatherCatV1.12B45,2013-06-03 01:56:00,
2013-06-02 19:01:00,54.0,43.6,30.32,West,277,0.0,0.0,68,0.00,,,0.28,WeatherCatV1.12B45,2013-06-03 02:01:00,
2013-06-02 19:06:00,54.0,44.0,30.32,West,277,0.0,0.0,69,0.00,,,0.28,WeatherCatV1.12B45,2013-06-03 02:06:00,
2013-06-02 19:11:00,54.0,44.0,30.32,West,277,0.0,0.0,69,0.00,,,0.28,WeatherCatV1.12B45,2013-06-03 02:11:00,
2013-06-02 19:16:00,53.8,43.5,30.32,West,277,0.0,0.0,68,0.00,,,0.28,WeatherCatV1.12B45,2013-06-03 02:16:00,
2013-06-02 19:21:00,53.8,43.5,30.35,West,277,0.0,0.0,68,0.00,,,0.28,WeatherCatV1.12B45,2013-06-03 02:21:00,
2013-06-02 19:26:00,53.6,43.3,30.35,West,277,0.0,0.0,68,0.00,,,0.28,WeatherCatV1.12B45,2013-06-03 02:26:00,
2013-06-02 19:31:00,53.6,43.3,30.35,West,277,0.0,0.0,68,0.00,,,0.28,WeatherCatV1.12B45,2013-06-03 02:31:00,
2013-06-02 19:36:00,53.6,44.4,30.35,West,277,0.0,0.0,71,0.00,,,0.28,WeatherCatV1.12B45,2013-06-03 02:36:00,
2013-06-02 19:41:00,53.6,44.8,30.35,West,277,0.0,0.0,72,0.00,,,0.28,WeatherCatV1.12B45,2013-06-03 02:41:00,
2013-06-02 19:46:00,53.6,45.2,30.35,West,277,0.0,0.0,73,0.00,,,0.28,WeatherCatV1.12B45,2013-06-03 02:46:00,
2013-06-02 19:51:00,53.6,45.5,30.35,West,277,0.0,0.0,74,0.00,,,0.28,WeatherCatV1.12B45,2013-06-03 02:51:00,
2013-06-02 19:56:00,53.6,45.9,30.35,West,277,0.0,0.0,75,0.00,,,0.28,WeatherCatV1.12B45,2013-06-03 02:56:00,
2013-06-02 20:01:00,53.6,45.9,30.35,West,277,0.0,0.0,75,0.00,,,0.28,WeatherCatV1.12B45,2013-06-03 03:01:00,
2013-06-02 20:06:00,53.4,45.7,30.32,West,277,0.0,0.0,75,0.00,,,0.28,WeatherCatV1.12B45,2013-06-03 03:06:00,
2013-06-02 20:11:00,53.4,46.0,30.32,West,277,0.0,0.0,76,0.00,,,0.28,WeatherCatV1.12B45,2013-06-03 03:11:00,
2013-06-02 20:16:00,53.2,45.9,30.32,West,277,0.0,0.0,76,0.00,,,0.28,WeatherCatV1.12B45,2013-06-03 03:16:00,
2013-06-02 20:21:00,52.9,45.2,30.35,West,277,0.0,0.0,75,0.00,,,0.28,WeatherCatV1.12B45,2013-06-03 03:21:00,
2013-06-02 20:26:00,52.7,45.0,30.35,West,277,0.0,0.0,75,0.00,,,0.28,WeatherCatV1.12B45,2013-06-03 03:26:00,
2013-06-02 20:31:00,52.7,44.6,30.35,West,277,0.0,0.0,74,0.00,,,0.28,WeatherCatV1.12B45,2013-06-03 03:31:00,
2013-06-02 20:36:00,52.5,44.5,30.35,West,277,0.0,0.0,74,0.00,,,0.28,WeatherCatV1.12B45,2013-06-03 03:36:00,
2013-06-02 20:41:00,52.5,44.1,30.35,West,277,0.0,0.0,73,0.00,,,0.28,WeatherCatV1.12B45,2013-06-03 03:41:00,
2013-06-02 20:46:00,52.7,44.6,30.35,West,277,0.0,0.0,74,0.00,,,0.28,WeatherCatV1.12B45,2013-06-03 03:46:00,
2013-06-02 20:51:00,53.1,45.3,30.35,West,277,0.0,0.0,75,0.00,,,0.28,WeatherCatV1.12B45,2013-06-03 03:51:00,
2013-06-02 20:56:00,53.2,45.5,30.35,West,277,0.0,0.0,75,0.00,,,0.28,WeatherCatV1.12B45,2013-06-03 03:56:00,
2013-06-02 21:01:00,53.4,46.0,30.35,West,277,0.0,0.0,76,0.00,,,0.28,WeatherCatV1.12B45,2013-06-03 04:01:00,
2013-06-02 21:06:00,53.6,45.9,30.35,West,277,0.0,0.0,75,0.00,,,0.28,WeatherCatV1.12B45,2013-06-03 04:06:00,
2013-06-02 21:11:00,53.8,46.0,30.35,West,277,0.0,0.0,75,0.00,,,0.28,WeatherCatV1.12B45,2013-06-03 04:11:00,
2013-06-02 21:16:00,53.8,46.0,30.35,West,277,0.0,0.0,75,0.00,,,0.28,WeatherCatV1.12B45,2013-06-03 04:16:00,
2013-06-02 21:21:00,54.0,46.2,30.35,West,277,0.0,0.0,75,0.00,,,0.28,WeatherCatV1.12B45,2013-06-03 04:21:00,
2013-06-02 21:26:00,54.1,46.4,30.35,West,277,0.0,0.0,75,0.00,,,0.28,WeatherCatV1.12B45,2013-06-03 04:26:00,
2013-06-02 21:31:00,54.5,46.7,30.35,West,277,0.0,0.0,75,0.00,,,0.28,WeatherCatV1.12B45,2013-06-03 04:31:00,
2013-06-02 21:36:00,54.5,46.4,30.35,West,277,0.0,0.0,74,0.00,,,0.28,WeatherCatV1.12B45,2013-06-03 04:36:00,
2013-06-02 21:41:00,54.3,45.8,30.35,South,190,0.0,0.0,73,0.00,,,0.28,WeatherCatV1.12B45,2013-06-03 04:41:00,
2013-06-02 21:46:00,54.0,45.5,30.38,South,190,0.0,0.0,73,0.00,,,0.28,WeatherCatV1.12B45,2013-06-03 04:46:00,
2013-06-02 21:51:00,53.8,45.3,30.38,South,190,0.0,0.0,73,0.00,,,0.28,WeatherCatV1.12B45,2013-06-03 04:51:00,
2013-06-02 21:56:00,53.8,45.7,30.38,South,190,0.0,0.0,74,0.00,,,0.28,WeatherCatV1.12B45,2013-06-03 04:56:00,
2013-06-02 22:01:00,53.4,45.3,30.38,NE,45,0.0,3.1,74,0.00,,,0.28,WeatherCatV1.12B45,2013-06-03 05:01:00,
2013-06-02 22:06:00,53.2,45.2,30.38,NE,45,0.0,0.0,74,0.00,,,0.28,WeatherCatV1.12B45,2013-06-03 05:06:00,
2013-06-02 22:11:00,53.2,45.5,30.38,NE,45,0.0,0.0,75,0.00,,,0.28,WeatherCatV1.12B45,2013-06-03 05:11:00,
2013-06-02 22:16:00,53.1,45.3,30.38,NE,45,0.0,0.0,75,0.00,,,0.28,WeatherCatV1.12B45,2013-06-03 05:16:00,
2013-06-02 22:21:00,52.9,45.2,30.35,NE,45,0.0,0.0,75,0.00,,,0.28,WeatherCatV1.12B45,2013-06-03 05:21:00,
2013-06-02 22:26:00,52.5,44.8,30.35,NE,45,0.0,0.0,75,0.00,,,0.28,WeatherCatV1.12B45,2013-06-03 05:26:00,
2013-06-02 22:31:00,52.3,44.7,30.35,NE,45,0.0,0.0,75,0.00,,,0.28,WeatherCatV1.12B45,2013-06-03 05:31:00,
2013-06-02 22:36:00,52.0,44.0,30.35,NE,45,0.0,0.0,74,0.00,,,0.28,WeatherCatV1.12B45,2013-06-03 05:36:00,
2013-06-02 22:41:00,51.6,43.6,30.35,NE,45,0.0,0.0,74,0.00,,,0.28,WeatherCatV1.12B45,2013-06-03 05:41:00,
2013-06-02 22:46:00,51.3,42.9,30.35,NE,45,0.0,0.0,73,0.00,,,0.28,WeatherCatV1.12B45,2013-06-03 05:46:00,
2013-06-02 22:51:00,51.1,42.7,30.35,NE,45,0.0,0.0,73,0.00,,,0.28,WeatherCatV1.12B45,2013-06-03 05:51:00,
2013-06-02 22:56:00,50.7,42.4,30.35,NE,45,0.0,0.0,73,0.00,,,0.28,WeatherCatV1.12B45,2013-06-03 05:56:00,
2013-06-02 23:01:00,50.5,42.2,30.35,NE,45,0.0,0.0,73,0.00,,,0.28,WeatherCatV1.12B45,2013-06-03 06:01:00,
2013-06-02 23:06:00,50.2,42.2,30.35,NE,45,0.0,0.0,74,0.00,,,0.28,WeatherCatV1.12B45,2013-06-03 06:06:00,
2013-06-02 23:11:00,50.0,42.0,30.35,NE,45,0.0,0.0,74,0.00,,,0.28,WeatherCatV1.12B45,2013-06-03 06:11:00,
2013-06-02 23:16:00,49.8,41.9,30.35,NE,45,0.0,0.0,74,0.00,,,0.28,WeatherCatV1.12B45,2013-06-03 06:16:00,
2013-06-02 23:21:00,49.6,42.0,30.35,NE,45,0.0,0.0,75,0.00,,,0.28,WeatherCatV1.12B45,2013-06-03 06:21:00,
2013-06-02 23:26:00,49.5,41.9,30.35,NE,45,0.0,0.0,75,0.00,,,0.28,WeatherCatV1.12B45,2013-06-03 06:26:00,
2013-06-02 23:31:00,49.8,42.9,30.35,NE,45,0.0,0.0,77,0.00,,,0.28,WeatherCatV1.12B45,2013-06-03 06:31:00,
2013-06-02 23:36:00,49.6,42.7,30.35,NE,45,0.0,0.0,77,0.00,,,0.28,WeatherCatV1.12B45,2013-06-03 06:36:00,
2013-06-02 23:41:00,49.5,42.6,30.35,NE,45,0.0,0.0,77,0.00,,,0.28,WeatherCatV1.12B45,2013-06-03 06:41:00,
2013-06-02 23:46:00,49.5,42.6,30.35,NE,45,0.0,0.0,77,0.00,,,0.28,WeatherCatV1.12B45,2013-06-03 06:46:00,
2013-06-02 23:51:00,49.3,42.7,30.35,NE,45,0.0,0.0,78,0.00,,,0.28,WeatherCatV1.12B45,2013-06-03 06:51:00,
2013-06-02 23:56:00,49.3,42.7,30.35,NE,45,0.0,0.0,78,0.00,,,0.28,WeatherCatV1.12B45,2013-06-03 06:56:00,